Weather History for Manistique, MI

Change the Weather History Date:

Friday, September 20, 2013

  Actual Average Record
Temperature  
Mean Temperature 62 °F -  
Max Temperature 69 °F 63 °F 79 °F (1970)
Min Temperature 54 °F 46 °F 30 °F (1956)
Degree Days  
Heating Degree Days 4    
Growing Degree Days 12 (Base 50)    
Moisture  
Dew Point 62 °F    
Average Humidity 96    
Maximum Humidity 100    
Minimum Humidity 83    
Precipitation  
Precipitation 0.37 in - - ()
Sea Level Pressure  
Sea Level Pressure 29.67 in    
Wind  
Wind Speed 6 mph (WSW)    
Max Wind Speed 13 mph    
Max Gust Speed 20 mph    
Visibility 7 miles    
Events Fog , Rain    
Averages and records for this station are not official NWS values.
T = Trace of Precipitation, MM = Missing Value Source: NWS Daily Summary

Daily Weather History Graph

Daily Weather History Graph

Search for Another Location

Airport:

Trip Planner

Search our weather history database for the weather conditions in past years. The results will help you decide how hot, cold, wet, or windy it might be!

Date:

Astronomy

Sep. 20, 2013 Rise Set
Actual Time 7:29 AM EDT 7:45 PM EDT
Civil Twilight 6:59 AM EDT 8:15 PM EDT
Nautical Twilight 6:24 AM EDT 8:50 PM EDT
Astronomical Twilight 5:48 AM EDT 9:26 PM EDT
Moon 8:11 PM EDT 8:49 AM EDT
Length of Visible Light 13h 15m
Length of Day
12h 16m
Full, 98% of the Moon is Illuminated
Sep 20
Full
Sep 26
Last Quarter
Oct 4
New
Oct 11
First Quarter
Oct 18
Full

Hourly Weather History & Observations

Time (EDT) Temp. Dew Point Humidity Pressure Visibility Wind Dir Wind Speed Gust Speed Precip Events Conditions
12:16 AM 65.3 °F 64.0 °F 96% 29.71 in 7.0 mi SSE 5.8 mph - N/A   Overcast
12:36 AM 65.5 °F 64.4 °F 96% 29.73 in 7.0 mi SSW 5.8 mph - N/A Rain Light Rain
12:55 AM 64.9 °F 64.0 °F 97% 29.72 in 7.0 mi WSW 4.6 mph - 0.01 in Rain Rain
1:16 AM 65.5 °F 64.8 °F 98% 29.70 in 7.0 mi South 8.1 mph - 0.01 in Rain Rain
1:35 AM 65.3 °F 64.6 °F 98% 29.69 in 7.0 mi SSE 5.8 mph - 0.01 in   Overcast
1:56 AM 64.8 °F 64.4 °F 99% 29.68 in 4.0 mi SSE 9.2 mph - 0.01 in Rain Light Rain
2:15 AM 64.4 °F 63.9 °F 98% 29.68 in 2.5 mi South 10.4 mph 16.1 mph N/A   Overcast
2:36 AM 63.9 °F 63.5 °F 99% 29.70 in 4.0 mi South 8.1 mph - N/A   Overcast
2:56 AM 63.9 °F 63.5 °F 99% 29.68 in 7.0 mi South 9.2 mph - 0.01 in   Overcast
3:15 AM 63.7 °F 63.1 °F 98% 29.67 in 5.0 mi South 6.9 mph - N/A   Overcast
3:36 AM 63.7 °F 63.1 °F 98% 29.66 in 5.0 mi South 9.2 mph - N/A   Overcast
3:56 AM 63.7 °F 63.0 °F 97% 29.65 in 7.0 mi South 10.4 mph - N/A   Overcast
4:15 AM 64.2 °F 63.5 °F 98% 29.65 in 7.0 mi South 10.4 mph 19.6 mph N/A   Overcast
4:36 AM 64.0 °F 63.3 °F 97% 29.65 in 7.0 mi South 9.2 mph - N/A   Overcast
4:56 AM 63.5 °F 63.0 °F 98% 29.65 in 7.0 mi SSW 6.9 mph - N/A   Overcast
5:15 AM 63.0 °F 62.6 °F 99% 29.64 in 5.0 mi South 6.9 mph - 0.01 in Rain Light Rain
5:36 AM 62.2 °F 61.9 °F 99% 29.64 in 4.0 mi SSW 9.2 mph - 0.01 in   Overcast
5:56 AM 61.7 °F 61.5 °F 99% 29.64 in 4.0 mi SSW 9.2 mph - 0.01 in   Overcast
6:16 AM 61.9 °F 61.7 °F 99% 29.64 in 4.0 mi SSW 9.2 mph - N/A   Overcast
6:36 AM 61.9 °F 61.7 °F 99% 29.63 in 5.0 mi SW 6.9 mph - N/A   Overcast
6:55 AM 61.7 °F 61.3 °F 99% 29.64 in 3.0 mi SSW 9.2 mph - N/A   Overcast
7:16 AM 61.9 °F 61.7 °F 99% 29.63 in 3.0 mi SW 5.8 mph - N/A   Overcast
7:36 AM 61.7 °F 61.7 °F 100% 29.63 in 0.8 mi SSW 5.8 mph - N/A   Overcast
7:55 AM 61.7 °F 61.5 °F 99% 29.63 in 0.2 mi SSW 4.6 mph - N/A Fog Fog
8:16 AM 61.7 °F 61.3 °F 99% 29.64 in 0.2 mi SSW 4.6 mph - N/A Fog Fog
8:36 AM 61.3 °F 61.2 °F 99% 29.65 in 0.2 mi SW 4.6 mph - N/A Fog Fog
8:56 AM 62.2 °F 62.2 °F 100% 29.65 in 0.2 mi SW 5.8 mph - N/A   Drizzle
9:16 AM 62.6 °F 62.6 °F 100% 29.65 in 0.2 mi SW 4.6 mph - 0.01 in   Light Drizzle
9:35 AM 63.7 °F 63.7 °F 100% 29.64 in 0.2 mi Calm Calm - 0.01 in Fog Fog
9:56 AM 64.9 °F 64.9 °F 100% 29.64 in 2.5 mi West 3.5 mph - 0.01 in   Overcast
10:16 AM 65.7 °F 65.5 °F 99% 29.64 in 3.0 mi SW 3.5 mph - N/A   Overcast
10:35 AM 65.8 °F 65.5 °F 99% 29.64 in 4.0 mi Calm Calm - N/A   Overcast
10:56 AM 65.3 °F 64.9 °F 99% 29.65 in 3.0 mi SW 3.5 mph - N/A   Overcast
11:15 AM 66.4 °F 65.8 °F 98% 29.66 in 7.0 mi Calm Calm - N/A   Overcast
11:36 AM 67.1 °F 66.0 °F 96% 29.65 in 10.0 mi West 4.6 mph - N/A Rain Light Rain
11:56 AM 67.1 °F 66.2 °F 97% 29.65 in 10.0 mi West 3.5 mph - N/A Rain Light Rain
12:15 PM 67.6 °F 66.2 °F 95% 29.65 in 10.0 mi WSW 3.5 mph - N/A   Overcast
12:36 PM 68.7 °F 66.7 °F 93% 29.64 in 10.0 mi SW 4.6 mph - N/A   Overcast
12:56 PM 69.1 °F 66.7 °F 92% 29.64 in 10.0 mi SW 5.8 mph - N/A   Overcast
1:16 PM 68.4 °F 66.2 °F 93% 29.64 in 10.0 mi SW 5.8 mph - N/A   Overcast
1:36 PM 68.0 °F 65.8 °F 93% 29.64 in 10.0 mi SW 5.8 mph - N/A   Overcast
1:55 PM 67.1 °F 65.5 °F 95% 29.63 in 10.0 mi SW 3.5 mph - N/A   Overcast
2:16 PM 68.4 °F 65.8 °F 92% 29.63 in 10.0 mi SSW 4.6 mph - N/A   Overcast
2:36 PM 66.4 °F 63.0 °F 89% 29.63 in 10.0 mi NNW 4.6 mph - N/A   Overcast
2:55 PM 63.5 °F 61.5 °F 93% 29.63 in 2.5 mi NNW 5.8 mph - 0.04 in Rain Light Rain
3:16 PM 63.9 °F 62.1 °F 94% 29.65 in 2.0 mi Calm Calm - 0.05 in Rain Rain
3:36 PM 64.6 °F 62.8 °F 94% 29.65 in 10.0 mi Calm Calm - 0.06 in Rain Rain
3:56 PM 65.7 °F 63.5 °F 93% 29.64 in 10.0 mi NW 3.5 mph - 0.06 in   Mostly Cloudy
4:16 PM 66.6 °F 63.3 °F 89% 29.65 in 10.0 mi Calm Calm - N/A   Scattered Clouds
4:35 PM 67.3 °F 63.7 °F 88% 29.64 in 10.0 mi NW 4.6 mph - N/A   Clear
4:56 PM 67.8 °F 63.7 °F 87% 29.65 in 10.0 mi NNW 4.6 mph - N/A   Mostly Cloudy
5:16 PM 69.1 °F 64.0 °F 84% 29.65 in 10.0 mi NNW 3.5 mph - N/A   Scattered Clouds
5:35 PM 68.9 °F 63.7 °F 83% 29.65 in 10.0 mi Calm Calm - N/A   Mostly Cloudy
5:56 PM 67.1 °F 63.5 °F 88% 29.65 in 10.0 mi NE 4.6 mph - N/A   Overcast
6:16 PM 64.0 °F 60.3 °F 87% 29.65 in 10.0 mi NNW 5.8 mph 18.4 mph N/A   Overcast
6:35 PM 60.6 °F 59.0 °F 94% 29.66 in 1.8 mi NNE 12.7 mph 17.3 mph 0.11 in Rain Rain
6:56 PM 60.3 °F 58.6 °F 94% 29.68 in 4.0 mi North 10.4 mph - 0.15 in Rain Rain
7:15 PM 59.7 °F 58.1 °F 94% 29.68 in 10.0 mi North 10.4 mph - N/A Rain Light Rain
7:36 PM 58.5 °F 56.8 °F 94% 29.68 in 10.0 mi North 8.1 mph - N/A   Scattered Clouds
7:56 PM 58.3 °F 56.3 °F 93% 29.69 in 10.0 mi NNW 10.4 mph 17.3 mph N/A   Overcast
8:15 PM 57.2 °F 55.8 °F 95% 29.70 in 5.0 mi North 8.1 mph 16.1 mph 0.04 in Rain Rain
8:36 PM 57.2 °F 55.4 °F 94% 29.71 in 10.0 mi NNW 8.1 mph - 0.05 in   Light Drizzle
8:56 PM 56.5 °F 55.4 °F 96% 29.70 in 10.0 mi North 9.2 mph - 0.06 in Rain Rain
9:15 PM 56.3 °F 55.0 °F 96% 29.71 in 10.0 mi NNW 9.2 mph - N/A Rain Light Rain
9:36 PM 56.1 °F 54.7 °F 95% 29.71 in 10.0 mi North 9.2 mph - 0.01 in Rain Light Rain
9:56 PM 55.4 °F 54.0 °F 95% 29.72 in 10.0 mi NNW 6.9 mph - 0.01 in   Mostly Cloudy
10:15 PM 55.4 °F 54.0 °F 95% 29.72 in 10.0 mi NNW 8.1 mph - N/A   Overcast
10:36 PM 55.0 °F 53.6 °F 95% 29.73 in 10.0 mi NW 5.8 mph - N/A   Overcast
10:55 PM 54.9 °F 53.6 °F 96% 29.72 in 10.0 mi NW 4.6 mph - N/A   Overcast
11:16 PM 54.9 °F 53.6 °F 96% 29.73 in 10.0 mi NW 5.8 mph - N/A   Overcast
11:36 PM 54.7 °F 53.6 °F 96% 29.73 in 10.0 mi WNW 6.9 mph - N/A   Overcast
11:55 PM 54.7 °F 53.8 °F 97% 29.72 in 10.0 mi NW 4.6 mph - N/A   Overcast